◎C/2010 A1の軌道と予報位置

 発見公表前に守山の井狩康一氏,東京の佐藤英貴氏,秦野の浅見敦夫氏から確認
観測が報告されました.浅見氏は,彗星のCCD全光度を1月7日に17.5等,上尾の
門田健一氏は,1月8日に17.9等と観測しています.なお,周期が大きく不確かで
すが,彗星は,短周期彗星の1つでしょう.

    P/2010 A1 (Hill)
T 2009 Aug. 4.81898 TT                                  Nakano
q   2.0303365            (2000.0)            P               Q
n   0.13759878     Peri.   18.47402     +0.45133102     -0.88356034
a   3.7158628      Node    44.92347     +0.79479337     +0.33434347
e   0.4536029      Incl.   10.19466     +0.40571394     +0.32792617
P   7.16 (+/-131.21 days)
From 30 observations 2010 Jan. 6-8.
Residuals in seconds of arc 
2010/                     100106 G96  0.5+  0.1-    100107 703  0.4-  0.4+  
100106 703  1.1+  0.0     100106 900  0.3+  0.3+    100107 H01  0.8+  0.0   
100106 703  0.1-  0.9+    100106 900  0.0   0.9-    100107 H01  0.9+  0.1-  
100106 703  1.3-  0.9-    100107 J95  0.2+  0.2-    100107 H01  0.9+  0.0   
100106 703  1.6-  0.1+    100107 J95  0.9+  0.1-    100107 H01  0.9+  0.1-  
100106 703  0.3+  0.9-    100107 H06  0.6+  0.2+    100107 355  0.2-  0.4+  
100106 703  0.4+  0.2-    100107 H06  0.6-  0.1+    100107 355  0.2-  0.1-  
100106 703  0.8-  0.4+    100107 H06 (3.0-  0.3+)   100107 355  0.2+  0.2+  
100106 G96  0.1+  0.0     100107 703  1.0-  0.3-    100108 349  0.1-  0.2-  
100106 G96  0.6+  0.6+    100107 703  1.3-  0.1-    100108 349  0.0   0.2-  
100106 G96  0.1+  0.4+    100107 703  1.3-  0.4+                            
 
Date/        TT  R.A.(2000) Decl.     Delta   r     Daily motion  Mag.  Moon Age
              h    h  m       。  ,                      ,  / PA 。  m1      。
2010 Jan.  1 18  09 14.29  +32 36.7   1.466  2.350     9.7 / 315  17.5   23  .99
           2 18  09 13.74  +32 43.6   1.464  2.353    10.0 / 313  17.5   18  .94
           3 18  09 13.16  +32 50.4   1.463  2.357    10.2 / 311  17.5   23  .88
           4 18  09 12.56  +32 57.1   1.461  2.361    10.5 / 310  17.6   35  .79
           5 18  09 11.92  +33 03.8   1.460  2.365    10.7 / 308  17.6   47  .68
           6 18  09 11.25  +33 10.5   1.459  2.369    10.9 / 307  17.6   60  .58
           7 18  09 10.55  +33 17.0   1.458  2.372    11.1 / 306  17.6   73  .47
           8 18  09 09.83  +33 23.4   1.457  2.376    11.3 / 304  17.6   86  .36
           9 18  09 09.08  +33 29.8   1.457  2.380    11.5 / 303  17.6   98  .27
          10 18  09 08.31  +33 36.0   1.456  2.384    11.7 / 302  17.6  111  .18
          11 18  09 07.52  +33 42.1   1.456  2.388    11.8 / 300  17.6  122  .11
          12 18  09 06.70  +33 48.1   1.457  2.392    12.0 / 299  17.6  134  .06
          13 18  09 05.86  +33 54.0   1.457  2.396    12.1 / 298  17.6  145  .02
          14 18  09 05.00  +33 59.7   1.458  2.400    12.2 / 297  17.6  154  .00
          15 18  09 04.12  +34 05.2   1.459  2.403    12.3 / 296  17.6  161  .00
          16 18  09 03.23  +34 10.6   1.460  2.407    12.4 / 295  17.6  161  .02
          17 18  09 02.32  +34 15.8   1.462  2.411    12.5 / 294  17.6  155  .05
          18 18  09 01.40  +34 20.8   1.464  2.415    12.5 / 293  17.7  146  .10
          19 18  09 00.47  +34 25.6   1.466  2.419    12.6 / 292  17.7  135  .17
          20 18  08 59.52  +34 30.3   1.468  2.423    12.6 / 291  17.7  124  .24
          21 18  08 58.57  +34 34.7   1.471  2.427    12.6 / 290  17.7  113  .33
          22 18  08 57.60  +34 38.9   1.474  2.431    12.6 / 289  17.7  101  .43
          23 18  08 56.64  +34 42.9   1.477  2.435    12.6 / 288  17.7   88  .53
          24 18  08 55.67  +34 46.7   1.480  2.439    12.5 / 287  17.7   76  .63
          25 18  08 54.69  +34 50.3   1.484  2.443    12.5 / 286  17.7   63  .74
          26 18  08 53.71  +34 53.6   1.488  2.447    12.4 / 285  17.7   49  .83
          27 18  08 52.74  +34 56.7   1.492  2.451    12.3 / 284  17.8   36  .91
          28 18  08 51.77  +34 59.6   1.497  2.455    12.2 / 283  17.8   25  .97
          29 18  08 50.79  +35 02.2   1.501  2.459    12.1 / 282  17.8   18 1.00
          30 18  08 49.83  +35 04.6   1.506  2.464    12.0 / 280  17.8   23 1.00
          31 18  08 48.87  +35 06.8   1.511  2.468    11.8 / 279  17.8   34  .97
     Feb.  1 18  08 47.92  +35 08.7   1.517  2.472    11.7 / 278  17.8   47  .91
NAKANO
         **** Don't distribute anyone except personal use only ****
           (C) Copyright 2010 Orbit.Astro.Assoc./ComputingSection
write mail from CFAD0::NAKANO on 2010-01-09 07:22:52(JST).
 

戻ります。